Location: Castle
(40.7167°S, 175.9500°E)
Time: 04:34:17
(UTC+00:00)

Nadezhda 1 Rocket - Pass Details

Date: 04 August 2024
Orbit: 941 x 1004 km, 83.0° (Epoch: 07 September)

Event Time Altitude Azimuth Distance (km) Brightness Sun altitude
Rises 17:41:44 0° 191° (SSW) 3,765 6.9 -18.5°
Reaches altitude 10° 17:44:20 10° 194° (SSW) 2,804 6.2 -18.0°
Maximum altitude 17:50:39 60° 272° (W) 1,134 4.0 -16.9°
Drops below altitude 10° 17:56:50 10° 350° (N) 2,736 6.3 -15.7°
Sets 17:59:20 0° 354° (N) 3,667 7.1 -15.2°
